Regional Weather Roundup
Issued by NWS Spokane, WA

Home | Current Version | Previous Version | Text Only | Print | Product List | Glossary On
Versions: 1 2 3 4 5 6 7 8 9 10 11 12 13 14 15 16 17 18 19 20 21 22 23 24 25 26 27 28 29 30 31 32 33 34 35 36 37 38 39 40 41 42 43 44 45 46 47 48 49 50
351
NZUS01 KOTX 230325
RWROTX

Eastern Washington/Northern Idaho Roundup
National Weather Service, Spokane WA
800 PM PDT TUE MAY 22 2018

Note: "fair" indicated few or no clouds below 12,000 feet with no
significant weather and/or obstructions to visibility.

...Northeast Washington and Northern Idaho Panhandle...

CITY           SKY/WX    TMP DP  RH WIND       PRES   REMARKS
Spokane Intl   PTCLDY    79  44  28 N6        29.81S
Spokane Downto PTCLDY    74  47  38 CALM      29.80R
Coeur d Alene  PTCLDY    75  45  34 S9        29.82S
Deer Park      CLEAR     76  49  38 NW5       29.81S
Sandpoint      CLEAR     68  50  52 CALM      29.81S
Bonners Ferry  FAIR      73  50  43 NW3       29.82S

...Southeast Washington and southern Idaho Panhandle...

CITY           SKY/WX    TMP DP  RH WIND       PRES   REMARKS
Walla Walla    CLEAR     80  60  50 NE5       29.74F
Pullman/Moscow CLEAR     71  49  45 NE3       29.84R
Lewiston       PTCLDY    77  53  43 E18G28    29.78R
Lowell           N/A     60  59  96 VRB3      29.88F
Grangeville    CLOUDY    55  54  94 E10       29.93R

...Columbia Basin...

CITY           SKY/WX    TMP DP  RH WIND       PRES   REMARKS
Ephrata        CLEAR     84  45  25 N6        29.76F
Moses Lake     CLEAR     83  45  26 N7        29.77S
Pasco          CLEAR     79  61  53 N7        29.71F
Richland       CLEAR     83  48  30 N7        29.72R
Hermiston      CLEAR     85  53  33 N6        29.71F
Pendleton      CLEAR     79  52  38 N9        29.76S

...East Slopes Cascades...

CITY           SKY/WX    TMP DP  RH WIND       PRES   REMARKS
The Dalles     CLEAR     87  55  33 NW3       29.69F
Yakima         CLEAR     83  49  30 E5        29.76S
Ellensburg     CLEAR     79  50  36 E6        29.79S
Wenatchee      CLEAR     83  40  21 CALM      29.76F
Omak           CLEAR     77  58  51 SW3       29.77F
Sunnyside      CLEAR     72  55  54 N3        29.74S

...Southern British Columbia...

CITY           SKY/WX    TMP DP  RH WIND       PRES   REMARKS
Penticton      PTCLDY    72  54  53 CALM      29.76S
Castlegar      CLEAR     75  45  33 N7        29.79R
Cranbrook      PTCLDY    75  39  27 SE6       29.87S
Osoyoos          N/A     81  50  34 SE2         N/A
Creston          N/A     73  46  38 W3          N/A

...Western Montana...

CITY           SKY/WX    TMP DP  RH WIND       PRES   REMARKS
Kalispell      PTCLDY    69  45  41 NE3       29.90R
Libby            N/A     73  43  33 SW7       29.86R
Missoula       MOCLDY    67  49  52 S12       29.90S

...Neighboring Cities...

CITY           SKY/WX    TMP DP  RH WIND       PRES   REMARKS
Seattle        CLEAR     74  49  41 N8        29.82F
Portland       PTCLDY    79  56  45 N8G17     29.74S
Boise          MOCLDY    72  50  45 S9        29.83R
Great Falls    MOCLDY    63  53  70 NW5       29.97S
Calgary        PTCLDY    72  39  30 SE9       29.95S



USA.gov is the U.S. government's official web portal to all federal, state and local government web resources and services.